Location: Caltech
(34.1382°N, 118.1253°W)
Time: 09:17:15
(UTC-07:00)

Oscar 10/S400 - Visible Passes

Search period start: 01 October 2014 00:00
Search period end: 11 October 2014 00:00
Orbit: 3983 x 35464 km, 26.1° (Epoch: 29 September)

Date Brightness Start Highest point End Pass type
(mag) Time Alt. Az. Time Alt. Az. Time Alt. Az.
02 Oct ? 03:50:05 10° W 05:18:38 14° WSW 06:10:28 10° WSW visible
03 Oct ? 02:48:24 10° W 04:39:26 22° WSW 06:37:41 10° WSW visible
04 Oct ? 01:55:34 10° W 04:00:05 29° SW 06:57:04 10° WSW visible
05 Oct ? 01:06:16 10° W 03:20:33 35° SW 07:14:52 10° SW visible
06 Oct ? 10:31:38 10° SSW 02:40:48 41° SW 11:14:47 10° ESE visible
07 Oct ? 09:28:15 10° SSW 00:34:19 52° SW 10:25:31 10° SE visible
07 Oct ? 22:47:06 10° W 23:39:12 58° SSW 09:34:08 10° SSE visible
08 Oct ? 22:02:06 10° W 22:45:10 63° SSW 08:40:55 10° SSE visible
09 Oct ? 21:17:26 10° W 21:53:11 67° SSW 07:47:11 10° SSE visible
10 Oct ? 20:32:59 10° W 21:03:11 70° SSW 22:08:44 45° SE visible
